Data supplied by UK-AIR on 22/3/2019
All Data GMT hour ending 
Status: R =Ratified P=Provisional,P*=As supplied
,,Sheffield Tinsley,,,,,,,,,,,,,,,,,,,,,,,
Date,time,"Nitric oxide",status,unit,"Nitrogen dioxide",status,unit,"Nitrogen oxides as nitrogen dioxide",status,unit
 
01-01-2018,01:00,0.80203,R,ugm-3,6.59767,R,ugm-3,7.82743,R,ugm-3
01-01-2018,02:00,1.06937,R,ugm-3,13.87664,R,ugm-3,15.51632,R,ugm-3
01-01-2018,03:00,0.80203,R,ugm-3,8.43331,R,ugm-3,9.66307,R,ugm-3
01-01-2018,04:00,1.23646,R,ugm-3,6.20863,R,ugm-3,8.10451,R,ugm-3
01-01-2018,05:00,0.70177,R,ugm-3,5.36601,R,ugm-3,6.44204,R,ugm-3
01-01-2018,06:00,0.96912,R,ugm-3,8.64467,R,ugm-3,10.13063,R,ugm-3
01-01-2018,07:00,0.66836,R,ugm-3,4.53406,R,ugm-3,5.55886,R,ugm-3
01-01-2018,08:00,0.70177,R,ugm-3,5.10625,R,ugm-3,6.18228,R,ugm-3
01-01-2018,09:00,0.56810,R,ugm-3,6.97367,R,ugm-3,7.84475,R,ugm-3
01-01-2018,10:00,0.73519,R,ugm-3,7.23699,R,ugm-3,8.36427,R,ugm-3
01-01-2018,11:00,1.03595,R,ugm-3,10.46442,R,ugm-3,12.05285,R,ugm-3
01-01-2018,12:00,6.08204,R,ugm-3,24.13140,R,ugm-3,33.45706,R,ugm-3
01-01-2018,13:00,11.62940,R,ugm-3,35.78293,R,ugm-3,53.61442,R,ugm-3
01-01-2018,14:00,9.89167,R,ugm-3,32.62879,R,ugm-3,47.79580,R,ugm-3
01-01-2018,15:00,7.98686,R,ugm-3,28.89961,R,ugm-3,41.14595,R,ugm-3
01-01-2018,16:00,6.34938,R,ugm-3,23.35782,R,ugm-3,33.09340,R,ugm-3
01-01-2018,17:00,5.68103,R,ugm-3,26.56460,R,ugm-3,35.27538,R,ugm-3
01-01-2018,18:00,4.41115,R,ugm-3,20.19940,R,ugm-3,26.96307,R,ugm-3
01-01-2018,19:00,1.67089,R,ugm-3,10.52990,R,ugm-3,13.09189,R,ugm-3
01-01-2018,20:00,1.40355,R,ugm-3,8.18636,R,ugm-3,10.33844,R,ugm-3
01-01-2018,21:00,1.20304,R,ugm-3,6.15597,R,ugm-3,8.00060,R,ugm-3
01-01-2018,22:00,1.06937,R,ugm-3,4.38675,R,ugm-3,6.02643,R,ugm-3
01-01-2018,23:00,0.73519,R,ugm-3,3.60035,R,ugm-3,4.72763,R,ugm-3
01-01-2018,24:00,0.73519,R,ugm-3,3.70425,R,ugm-3,4.83153,R,ugm-3
02-01-2018,01:00,0.53481,R,ugm-3,3.19919,R,ugm-3,4.01923,R,ugm-3
02-01-2018,02:00,0.53481,R,ugm-3,5.62459,R,ugm-3,6.44463,R,ugm-3
02-01-2018,03:00,0.30083,R,ugm-3,2.76104,R,ugm-3,3.22231,R,ugm-3
02-01-2018,04:00,0.73537,R,ugm-3,5.26511,R,ugm-3,6.39265,R,ugm-3
02-01-2018,05:00,1.63787,R,ugm-3,11.46932,R,ugm-3,13.98068,R,ugm-3
02-01-2018,06:00,4.14480,R,ugm-3,20.15085,R,ugm-3,26.50612,R,ugm-3
02-01-2018,07:00,7.48738,R,ugm-3,36.28251,R,ugm-3,47.76300,R,ugm-3
02-01-2018,08:00,18.35076,R,ugm-3,57.40977,R,ugm-3,85.54721,R,ugm-3
02-01-2018,09:00,16.14466,R,ugm-3,42.70588,R,ugm-3,67.46068,R,ugm-3
02-01-2018,10:00,23.69889,R,ugm-3,57.47310,R,ugm-3,93.81089,R,ugm-3
02-01-2018,11:00,14.40652,R,ugm-3,42.25263,R,ugm-3,64.34231,R,ugm-3
02-01-2018,12:00,12.33412,R,ugm-3,38.46591,R,ugm-3,57.37796,R,ugm-3
02-01-2018,13:00,12.40097,R,ugm-3,38.20749,R,ugm-3,57.22204,R,ugm-3
02-01-2018,14:00,22.19473,R,ugm-3,45.17509,R,ugm-3,79.20653,R,ugm-3
02-01-2018,15:00,28.51220,R,ugm-3,47.75401,R,ugm-3,91.47211,R,ugm-3
02-01-2018,16:00,46.76269,R,ugm-3,63.58339,R,ugm-3,135.28517,R,ugm-3
02-01-2018,17:00,19.68779,R,ugm-3,44.80921,R,ugm-3,74.99674,R,ugm-3
02-01-2018,18:00,15.87725,R,ugm-3,49.71645,R,ugm-3,74.06123,R,ugm-3
02-01-2018,19:00,10.56255,R,ugm-3,34.89357,R,ugm-3,51.08925,R,ugm-3
02-01-2018,20:00,4.84674,R,ugm-3,25.98694,R,ugm-3,33.41851,R,ugm-3
02-01-2018,21:00,3.67684,R,ugm-3,21.80389,R,ugm-3,27.44163,R,ugm-3
02-01-2018,22:00,2.40666,R,ugm-3,9.92672,R,ugm-3,13.61687,R,ugm-3
02-01-2018,23:00,1.90527,R,ugm-3,9.50012,R,ugm-3,12.42150,R,ugm-3
02-01-2018,24:00,1.13648,R,ugm-3,7.09280,R,ugm-3,8.83538,R,ugm-3
03-01-2018,01:00,1.38193,R,ugm-3,11.12211,R,ugm-3,13.24104,R,ugm-3
03-01-2018,02:00,1.56024,R,ugm-3,12.30452,R,ugm-3,14.69686,R,ugm-3
03-01-2018,03:00,0.76898,R,ugm-3,4.02028,R,ugm-3,5.19936,R,ugm-3
03-01-2018,04:00,0.56838,R,ugm-3,3.85992,R,ugm-3,4.73142,R,ugm-3
03-01-2018,05:00,1.70512,R,ugm-3,6.06845,R,ugm-3,8.68293,R,ugm-3
03-01-2018,06:00,2.84187,R,ugm-3,8.17299,R,ugm-3,12.53046,R,ugm-3
03-01-2018,07:00,5.24911,R,ugm-3,13.42485,R,ugm-3,21.47336,R,ugm-3
03-01-2018,08:00,7.05453,R,ugm-3,19.18353,R,ugm-3,30.00032,R,ugm-3
03-01-2018,09:00,8.25815,R,ugm-3,22.95332,R,ugm-3,35.61563,R,ugm-3
03-01-2018,10:00,8.65935,R,ugm-3,26.96558,R,ugm-3,40.24306,R,ugm-3
03-01-2018,11:00,5.98465,R,ugm-3,18.95222,R,ugm-3,28.12855,R,ugm-3
03-01-2018,12:00,6.08495,R,ugm-3,17.03064,R,ugm-3,26.36077,R,ugm-3
03-01-2018,13:00,7.28857,R,ugm-3,17.52483,R,ugm-3,28.70048,R,ugm-3
03-01-2018,14:00,6.65332,R,ugm-3,18.96680,R,ugm-3,29.16842,R,ugm-3
03-01-2018,15:00,9.89640,R,ugm-3,27.35651,R,ugm-3,42.53078,R,ugm-3
03-01-2018,16:00,8.15784,R,ugm-3,25.34284,R,ugm-3,37.85136,R,ugm-3
03-01-2018,17:00,9.66236,R,ugm-3,27.03945,R,ugm-3,41.85486,R,ugm-3
03-01-2018,18:00,8.19128,R,ugm-3,27.11135,R,ugm-3,39.67113,R,ugm-3
03-01-2018,19:00,7.25513,R,ugm-3,27.66286,R,ugm-3,38.78724,R,ugm-3
03-01-2018,20:00,5.38284,R,ugm-3,23.41054,R,ugm-3,31.66412,R,ugm-3
03-01-2018,21:00,4.34639,R,ugm-3,19.74838,R,ugm-3,26.41276,R,ugm-3
03-01-2018,22:00,3.00904,R,ugm-3,14.05191,R,ugm-3,18.66571,R,ugm-3
03-01-2018,23:00,2.54097,R,ugm-3,14.19768,R,ugm-3,18.09378,R,ugm-3
03-01-2018,24:00,1.57139,R,ugm-3,13.81258,R,ugm-3,16.22201,R,ugm-3
04-01-2018,01:00,1.51603,R,ugm-3,14.25073,R,ugm-3,16.57527,R,ugm-3
04-01-2018,02:00,0.75801,R,ugm-3,13.33242,R,ugm-3,14.49469,R,ugm-3
04-01-2018,03:00,2.17372,R,ugm-3,20.38561,R,ugm-3,23.71859,R,ugm-3
04-01-2018,04:00,2.07339,R,ugm-3,19.75922,R,ugm-3,22.93837,R,ugm-3
04-01-2018,05:00,2.00651,R,ugm-3,14.24421,R,ugm-3,17.32081,R,ugm-3
04-01-2018,06:00,11.57085,R,ugm-3,37.13351,R,ugm-3,54.87524,R,ugm-3
04-01-2018,07:00,4.74873,R,ugm-3,37.13905,R,ugm-3,44.42034,R,ugm-3
04-01-2018,08:00,12.87508,R,ugm-3,41.84359,R,ugm-3,61.58511,R,ugm-3
04-01-2018,09:00,12.60755,R,ugm-3,42.87798,R,ugm-3,62.20928,R,ugm-3
04-01-2018,10:00,12.07248,R,ugm-3,50.04416,R,ugm-3,68.55504,R,ugm-3
04-01-2018,11:00,8.89551,R,ugm-3,48.77774,R,ugm-3,62.41734,R,ugm-3
04-01-2018,12:00,16.52024,R,ugm-3,44.21264,R,ugm-3,69.54332,R,ugm-3
04-01-2018,13:00,17.55693,R,ugm-3,36.32932,R,ugm-3,63.24957,R,ugm-3
04-01-2018,14:00,17.89135,R,ugm-3,40.08173,R,ugm-3,67.51475,R,ugm-3
04-01-2018,15:00,13.74457,R,ugm-3,34.32068,R,ugm-3,55.39539,R,ugm-3
04-01-2018,16:00,9.36370,R,ugm-3,26.73394,R,ugm-3,41.09142,R,ugm-3
04-01-2018,17:00,7.65817,R,ugm-3,23.15934,R,ugm-3,34.90169,R,ugm-3
04-01-2018,18:00,7.72505,R,ugm-3,22.38060,R,ugm-3,34.22551,R,ugm-3
04-01-2018,19:00,4.61497,R,ugm-3,18.35889,R,ugm-3,25.43507,R,ugm-3
04-01-2018,20:00,4.28055,R,ugm-3,20.17201,R,ugm-3,26.73543,R,ugm-3
04-01-2018,21:00,3.44450,R,ugm-3,19.42537,R,ugm-3,24.70686,R,ugm-3
04-01-2018,22:00,3.54483,R,ugm-3,23.27665,R,ugm-3,28.71198,R,ugm-3
04-01-2018,23:00,2.27404,R,ugm-3,23.04056,R,ugm-3,26.52737,R,ugm-3
04-01-2018,24:00,1.67209,R,ugm-3,16.47346,R,ugm-3,19.03729,R,ugm-3
05-01-2018,01:00,1.56099,R,ugm-3,17.17178,R,ugm-3,19.56527,R,ugm-3
05-01-2018,02:00,2.22998,R,ugm-3,25.99801,R,ugm-3,29.41728,R,ugm-3
05-01-2018,03:00,2.54218,R,ugm-3,27.32321,R,ugm-3,31.22117,R,ugm-3
05-01-2018,04:00,2.04044,R,ugm-3,15.70815,R,ugm-3,18.83677,R,ugm-3
05-01-2018,05:00,6.08786,R,ugm-3,22.45897,R,ugm-3,31.79356,R,ugm-3
05-01-2018,06:00,12.67746,R,ugm-3,33.94969,R,ugm-3,53.38820,R,ugm-3
05-01-2018,07:00,19.26707,R,ugm-3,46.22094,R,ugm-3,75.76336,R,ugm-3
05-01-2018,08:00,11.54017,R,ugm-3,47.97384,R,ugm-3,65.66852,R,ugm-3
05-01-2018,09:00,18.19667,R,ugm-3,54.36660,R,ugm-3,82.26777,R,ugm-3
05-01-2018,10:00,31.57658,R,ugm-3,60.49309,R,ugm-3,108.90984,R,ugm-3
05-01-2018,11:00,15.52069,R,ugm-3,54.09875,R,ugm-3,77.89681,R,ugm-3
05-01-2018,12:00,19.96951,R,ugm-3,56.12332,R,ugm-3,86.74281,R,ugm-3
05-01-2018,13:00,19.16672,R,ugm-3,53.76382,R,ugm-3,83.15237,R,ugm-3
05-01-2018,14:00,11.70742,R,ugm-3,45.89616,R,ugm-3,63.84729,R,ugm-3
05-01-2018,15:00,44.92304,R,ugm-3,63.65282,R,ugm-3,132.53385,R,ugm-3
05-01-2018,16:00,100.61690,R,ugm-3,79.93369,R,ugm-3,234.21078,R,ugm-3
05-01-2018,17:00,108.04275,R,ugm-3,84.99069,R,ugm-3,250.65393,R,ugm-3
05-01-2018,18:00,64.08976,R,ugm-3,78.44222,R,ugm-3,176.71180,R,ugm-3
05-01-2018,19:00,96.77018,R,ugm-3,83.43829,R,ugm-3,231.81716,R,ugm-3
05-01-2018,20:00,122.45960,R,ugm-3,85.83272,R,ugm-3,273.60149,R,ugm-3
05-01-2018,21:00,125.36973,R,ugm-3,82.25518,R,ugm-3,274.48609,R,ugm-3
05-01-2018,22:00,142.73016,R,ugm-3,82.95475,R,ugm-3,301.80461,R,ugm-3
05-01-2018,23:00,86.09970,R,ugm-3,69.56696,R,ugm-3,201.58467,R,ugm-3
05-01-2018,24:00,48.87011,R,ugm-3,59.94232,R,ugm-3,134.87544,R,ugm-3
06-01-2018,01:00,44.25346,R,ugm-3,55.69213,R,ugm-3,123.54649,R,ugm-3
06-01-2018,02:00,10.30499,R,ugm-3,46.52775,R,ugm-3,62.32851,R,ugm-3
06-01-2018,03:00,12.37937,R,ugm-3,41.97626,R,ugm-3,60.95770,R,ugm-3
06-01-2018,04:00,2.47587,R,ugm-3,29.15523,R,ugm-3,32.95152,R,ugm-3
06-01-2018,05:00,1.37177,R,ugm-3,21.06162,R,ugm-3,23.16497,R,ugm-3
06-01-2018,06:00,0.90336,R,ugm-3,14.07553,R,ugm-3,15.46066,R,ugm-3
06-01-2018,07:00,0.56878,R,ugm-3,10.11172,R,ugm-3,10.98384,R,ugm-3
06-01-2018,08:00,1.80672,R,ugm-3,14.35620,R,ugm-3,17.12646,R,ugm-3
06-01-2018,09:00,2.17476,R,ugm-3,16.65497,R,ugm-3,19.98955,R,ugm-3
06-01-2018,10:00,2.00747,R,ugm-3,15.97446,R,ugm-3,19.05254,R,ugm-3
06-01-2018,11:00,2.91083,R,ugm-3,16.04690,R,ugm-3,20.51011,R,ugm-3
06-01-2018,12:00,3.27886,R,ugm-3,15.63876,R,ugm-3,20.66627,R,ugm-3
06-01-2018,13:00,1.94055,R,ugm-3,11.07968,R,ugm-3,14.05515,R,ugm-3
06-01-2018,14:00,2.91083,R,ugm-3,14.58933,R,ugm-3,19.05254,R,ugm-3
06-01-2018,15:00,1.73980,R,ugm-3,11.07515,R,ugm-3,13.74281,R,ugm-3
06-01-2018,16:00,1.23794,R,ugm-3,9.71037,R,ugm-3,11.60851,R,ugm-3
06-01-2018,17:00,1.47214,R,ugm-3,16.32678,R,ugm-3,18.58403,R,ugm-3
06-01-2018,18:00,4.95175,R,ugm-3,32.07418,R,ugm-3,39.66675,R,ugm-3
06-01-2018,19:00,5.68782,R,ugm-3,36.93200,R,ugm-3,45.65321,R,ugm-3
06-01-2018,20:00,2.44242,R,ugm-3,27.12429,R,ugm-3,30.86927,R,ugm-3
06-01-2018,21:00,3.11157,R,ugm-3,27.65994,R,ugm-3,32.43096,R,ugm-3
06-01-2018,22:00,1.30485,R,ugm-3,22.20534,R,ugm-3,24.20609,R,ugm-3
06-01-2018,23:00,1.57252,R,ugm-3,21.27437,R,ugm-3,23.68553,R,ugm-3
06-01-2018,24:00,1.33831,R,ugm-3,18.14572,R,ugm-3,20.19777,R,ugm-3
07-01-2018,01:00,0.53545,R,ugm-3,16.12135,R,ugm-3,16.94236,R,ugm-3
07-01-2018,02:00,0.53545,R,ugm-3,14.59376,R,ugm-3,15.41477,R,ugm-3
07-01-2018,03:00,0.20079,R,ugm-3,10.78451,R,ugm-3,11.09239,R,ugm-3
07-01-2018,04:00,0.23426,R,ugm-3,8.49389,R,ugm-3,8.85308,R,ugm-3
07-01-2018,05:00,0.16733,R,ugm-3,8.70067,R,ugm-3,8.95723,R,ugm-3
07-01-2018,06:00,0.16733,R,ugm-3,7.55497,R,ugm-3,7.81154,R,ugm-3
07-01-2018,07:00,0.36812,R,ugm-3,10.47586,R,ugm-3,11.04031,R,ugm-3
07-01-2018,08:00,0.83664,R,ugm-3,12.83001,R,ugm-3,14.11285,R,ugm-3
07-01-2018,09:00,1.87408,R,ugm-3,20.40484,R,ugm-3,23.27839,R,ugm-3
07-01-2018,10:00,5.62225,R,ugm-3,30.85366,R,ugm-3,39.47432,R,ugm-3
07-01-2018,11:00,4.75214,R,ugm-3,22.03281,R,ugm-3,29.31932,R,ugm-3
07-01-2018,12:00,6.09077,R,ugm-3,21.59466,R,ugm-3,30.93370,R,ugm-3
07-01-2018,13:00,7.26207,R,ugm-3,21.30892,R,ugm-3,32.44393,R,ugm-3
07-01-2018,14:00,5.35452,R,ugm-3,18.97401,R,ugm-3,27.18416,R,ugm-3
07-01-2018,15:00,2.97845,R,ugm-3,14.70157,R,ugm-3,19.26847,R,ugm-3
07-01-2018,16:00,3.91549,R,ugm-3,18.62872,R,ugm-3,24.63239,R,ugm-3
07-01-2018,17:00,4.75214,R,ugm-3,25.78235,R,ugm-3,33.06885,R,ugm-3
07-01-2018,18:00,12.58312,R,ugm-3,58.87363,R,ugm-3,78.16748,R,ugm-3
07-01-2018,19:00,16.90020,R,ugm-3,62.66958,R,ugm-3,88.58287,R,ugm-3
07-01-2018,20:00,10.40785,R,ugm-3,52.47062,R,ugm-3,68.42909,R,ugm-3
07-01-2018,21:00,1.80715,R,ugm-3,33.94331,R,ugm-3,36.71424,R,ugm-3
07-01-2018,22:00,18.17190,R,ugm-3,51.55413,R,ugm-3,79.41733,R,ugm-3
07-01-2018,23:00,5.78958,R,ugm-3,39.29394,R,ugm-3,48.17117,R,ugm-3
07-01-2018,24:00,60.74034,R,ugm-3,63.87808,R,ugm-3,157.01196,R,ugm-3
08-01-2018,01:00,28.78742,R,ugm-3,55.19298,R,ugm-3,99.33307,R,ugm-3
08-01-2018,02:00,17.18319,R,ugm-3,52.00785,R,ugm-3,78.35504,R,ugm-3
08-01-2018,03:00,28.62005,R,ugm-3,50.77818,R,ugm-3,94.66164,R,ugm-3
08-01-2018,04:00,62.12727,R,ugm-3,57.49017,R,ugm-3,152.75065,R,ugm-3
08-01-2018,05:00,92.55490,R,ugm-3,63.55805,R,ugm-3,205.47359,R,ugm-3
08-01-2018,06:00,166.93355,R,ugm-3,76.78721,R,ugm-3,332.74842,R,ugm-3
08-01-2018,07:00,259.85666,R,ugm-3,102.68708,R,ugm-3,501.12840,R,ugm-3
08-01-2018,08:00,362.62105,R,ugm-3,128.03246,R,ugm-3,684.04365,R,ugm-3
08-01-2018,09:00,385.88530,R,ugm-3,124.29704,R,ugm-3,715.97958,R,ugm-3
08-01-2018,10:00,430.13759,R,ugm-3,138.44636,R,ugm-3,797.98146,R,ugm-3
08-01-2018,11:00,245.19516,R,ugm-3,96.04508,R,ugm-3,472.00575,R,ugm-3
08-01-2018,12:00,75.28245,R,ugm-3,75.24635,R,ugm-3,190.67782,R,ugm-3
08-01-2018,13:00,47.83398,R,ugm-3,83.93874,R,ugm-3,157.28315,R,ugm-3
08-01-2018,14:00,36.38596,R,ugm-3,67.21180,R,ugm-3,123.00282,R,ugm-3
08-01-2018,15:00,6.19264,R,ugm-3,26.66060,R,ugm-3,36.15585,R,ugm-3
08-01-2018,16:00,5.35580,R,ugm-3,27.57906,R,ugm-3,35.79116,R,ugm-3
08-01-2018,17:00,13.59034,R,ugm-3,40.89762,R,ugm-3,61.73585,R,ugm-3
08-01-2018,18:00,26.67857,R,ugm-3,47.97221,R,ugm-3,88.87879,R,ugm-3
08-01-2018,19:00,21.42320,R,ugm-3,49.41393,R,ugm-3,82.26237,R,ugm-3
08-01-2018,20:00,14.79539,R,ugm-3,40.87332,R,ugm-3,63.55927,R,ugm-3
08-01-2018,21:00,4.08380,R,ugm-3,26.09098,R,ugm-3,32.35271,R,ugm-3
08-01-2018,22:00,4.92064,R,ugm-3,21.21309,R,ugm-3,28.75797,R,ugm-3
08-01-2018,23:00,1.60674,R,ugm-3,19.93841,R,ugm-3,22.40204,R,ugm-3
08-01-2018,24:00,0.56905,R,ugm-3,12.41239,R,ugm-3,13.28493,R,ugm-3
09-01-2018,01:00,0.71428,R,ugm-3,8.84207,R,ugm-3,9.93728,R,ugm-3
09-01-2018,02:00,0.35714,R,ugm-3,13.55916,R,ugm-3,14.10677,R,ugm-3
09-01-2018,03:00,0.26785,R,ugm-3,13.24437,R,ugm-3,13.65507,R,ugm-3
09-01-2018,04:00,0.36830,R,ugm-3,12.98612,R,ugm-3,13.55084,R,ugm-3
09-01-2018,05:00,0.33482,R,ugm-3,12.56839,R,ugm-3,13.08177,R,ugm-3
09-01-2018,06:00,1.30579,R,ugm-3,15.40543,R,ugm-3,17.40761,R,ugm-3
09-01-2018,07:00,3.68299,R,ugm-3,22.13204,R,ugm-3,27.77921,R,ugm-3
09-01-2018,08:00,7.53339,R,ugm-3,29.20570,R,ugm-3,40.75674,R,ugm-3
09-01-2018,09:00,10.98201,R,ugm-3,31.42297,R,ugm-3,48.26182,R,ugm-3
09-01-2018,10:00,12.48869,R,ugm-3,30.88480,R,ugm-3,50.03385,R,ugm-3
09-01-2018,11:00,14.63152,R,ugm-3,30.15298,R,ugm-3,52.58766,R,ugm-3
09-01-2018,12:00,19.21852,R,ugm-3,31.92772,R,ugm-3,61.39570,R,ugm-3
09-01-2018,13:00,21.12697,R,ugm-3,34.26544,R,ugm-3,66.65968,R,ugm-3
09-01-2018,14:00,31.90809,R,ugm-3,37.33121,R,ugm-3,86.25627,R,ugm-3
09-01-2018,15:00,38.67140,R,ugm-3,37.90585,R,ugm-3,97.20118,R,ugm-3
09-01-2018,16:00,41.51735,R,ugm-3,37.50314,R,ugm-3,101.16219,R,ugm-3
09-01-2018,17:00,43.89455,R,ugm-3,37.92340,R,ugm-3,105.22744,R,ugm-3
09-01-2018,18:00,39.64237,R,ugm-3,38.18909,R,ugm-3,98.97321,R,ugm-3
09-01-2018,19:00,41.41691,R,ugm-3,37.86563,R,ugm-3,101.37066,R,ugm-3
09-01-2018,20:00,29.33000,R,ugm-3,33.72704,R,ugm-3,78.69908,R,ugm-3
09-01-2018,21:00,29.02866,R,ugm-3,34.55391,R,ugm-3,79.06391,R,ugm-3
09-01-2018,22:00,25.44612,R,ugm-3,32.85471,R,ugm-3,71.87154,R,ugm-3
09-01-2018,23:00,23.43721,R,ugm-3,30.67100,R,ugm-3,66.60756,R,ugm-3
09-01-2018,24:00,24.34122,R,ugm-3,31.47386,R,ugm-3,68.79654,R,ugm-3
10-01-2018,01:00,19.60265,R,ugm-3,32.02369,R,ugm-3,62.08067,R,ugm-3
10-01-2018,02:00,19.11147,R,ugm-3,36.11375,R,ugm-3,65.41760,R,ugm-3
10-01-2018,03:00,21.03155,R,ugm-3,33.13491,R,ugm-3,65.38284,R,ugm-3
10-01-2018,04:00,25.45219,R,ugm-3,33.08267,R,ugm-3,72.10882,R,ugm-3
10-01-2018,05:00,28.80116,R,ugm-3,29.45970,R,ugm-3,73.62087,R,ugm-3
10-01-2018,06:00,45.21113,R,ugm-3,33.02692,R,ugm-3,102.34969,R,ugm-3
10-01-2018,07:00,59.71218,R,ugm-3,36.65344,R,ugm-3,128.21084,R,ugm-3
10-01-2018,08:00,127.59585,R,ugm-3,54.15573,R,ugm-3,249.79998,R,ugm-3
10-01-2018,09:00,155.92816,R,ugm-3,57.95178,R,ugm-3,297.03829,R,ugm-3
10-01-2018,10:00,269.92719,R,ugm-3,84.20533,R,ugm-3,498.08791,R,ugm-3
10-01-2018,11:00,259.27745,R,ugm-3,72.58796,R,ugm-3,470.14118,R,ugm-3
10-01-2018,12:00,228.50040,R,ugm-3,72.48833,R,ugm-3,422.85072,R,ugm-3
10-01-2018,13:00,143.43649,R,ugm-3,60.68149,R,ugm-3,280.61438,R,ugm-3
10-01-2018,14:00,26.62433,R,ugm-3,60.79633,R,ugm-3,101.61974,R,ugm-3
10-01-2018,15:00,25.78709,R,ugm-3,59.57739,R,ugm-3,99.11704,R,ugm-3
10-01-2018,16:00,,,,,,,,,
10-01-2018,17:00,32.28410,R,ugm-3,67.55142,R,ugm-3,117.05301,R,ugm-3
10-01-2018,18:00,25.35172,R,ugm-3,73.01910,R,ugm-3,111.89120,R,ugm-3
10-01-2018,19:00,13.93173,R,ugm-3,64.45981,R,ugm-3,85.82149,R,ugm-3
10-01-2018,20:00,20.26128,R,ugm-3,58.82150,R,ugm-3,89.88837,R,ugm-3
10-01-2018,21:00,21.29947,R,ugm-3,59.47164,R,ugm-3,92.13036,R,ugm-3
10-01-2018,22:00,9.81249,R,ugm-3,47.62598,R,ugm-3,62.67159,R,ugm-3
10-01-2018,23:00,16.10856,R,ugm-3,51.00700,R,ugm-3,75.70644,R,ugm-3
10-01-2018,24:00,2.47824,R,ugm-3,33.21908,R,ugm-3,37.01899,R,ugm-3
11-01-2018,01:00,1.52116,R,ugm-3,32.53073,R,ugm-3,34.86314,R,ugm-3
11-01-2018,02:00,1.52116,R,ugm-3,34.20082,R,ugm-3,36.53323,R,ugm-3
11-01-2018,03:00,1.00665,R,ugm-3,27.00460,R,ugm-3,28.54811,R,ugm-3
11-01-2018,04:00,0.83887,R,ugm-3,20.99901,R,ugm-3,22.28527,R,ugm-3
11-01-2018,05:00,0.87243,R,ugm-3,18.39024,R,ugm-3,19.72794,R,ugm-3
11-01-2018,06:00,1.61064,R,ugm-3,25.08688,R,ugm-3,27.55649,R,ugm-3
11-01-2018,07:00,1.34220,R,ugm-3,22.47144,R,ugm-3,24.52945,R,ugm-3
11-01-2018,08:00,5.20102,R,ugm-3,32.21176,R,ugm-3,40.18655,R,ugm-3
11-01-2018,09:00,38.78954,R,ugm-3,44.22571,R,ugm-3,103.70217,R,ugm-3
11-01-2018,10:00,47.84938,R,ugm-3,48.02667,R,ugm-3,121.39469,R,ugm-3
11-01-2018,11:00,28.05195,R,ugm-3,47.95534,R,ugm-3,90.96774,R,ugm-3
11-01-2018,12:00,15.30106,R,ugm-3,39.84556,R,ugm-3,63.30686,R,ugm-3
11-01-2018,13:00,11.74424,R,ugm-3,36.27036,R,ugm-3,54.27794,R,ugm-3
11-01-2018,14:00,12.78444,R,ugm-3,34.41445,R,ugm-3,54.01699,R,ugm-3
11-01-2018,15:00,14.59641,R,ugm-3,37.11612,R,ugm-3,59.49697,R,ugm-3
11-01-2018,16:00,16.00572,R,ugm-3,40.01767,R,ugm-3,64.55943,R,ugm-3
11-01-2018,17:00,19.56255,R,ugm-3,39.26108,R,ugm-3,69.25656,R,ugm-3
11-01-2018,18:00,22.07917,R,ugm-3,38.74249,R,ugm-3,72.59674,R,ugm-3
11-01-2018,19:00,30.06525,R,ugm-3,38.13578,R,ugm-3,84.23518,R,ugm-3
11-01-2018,20:00,23.85758,R,ugm-3,35.80687,R,ugm-3,72.38798,R,ugm-3
11-01-2018,21:00,13.28777,R,ugm-3,32.85984,R,ugm-3,53.23413,R,ugm-3
11-01-2018,22:00,22.68316,R,ugm-3,32.33640,R,ugm-3,67.11676,R,ugm-3
11-01-2018,23:00,29.46126,R,ugm-3,34.78228,R,ugm-3,79.95558,R,ugm-3
11-01-2018,24:00,12.44889,R,ugm-3,28.50954,R,ugm-3,47.59758,R,ugm-3
12-01-2018,01:00,12.05845,R,ugm-3,28.52774,R,ugm-3,47.01710,R,ugm-3
12-01-2018,02:00,10.80329,R,ugm-3,32.75090,R,ugm-3,49.31572,R,ugm-3
12-01-2018,03:00,17.88595,R,ugm-3,29.30923,R,ugm-3,56.73397,R,ugm-3
12-01-2018,04:00,14.08687,R,ugm-3,29.70132,R,ugm-3,51.30088,R,ugm-3
12-01-2018,05:00,14.89375,R,ugm-3,26.32223,R,ugm-3,49.15899,R,ugm-3
12-01-2018,06:00,31.36765,R,ugm-3,27.81011,R,ugm-3,75.90650,R,ugm-3
12-01-2018,07:00,32.84694,R,ugm-3,27.68378,R,ugm-3,78.04839,R,ugm-3
12-01-2018,08:00,26.29100,R,ugm-3,30.05662,R,ugm-3,70.36893,R,ugm-3
12-01-2018,09:00,29.82112,R,ugm-3,29.97245,R,ugm-3,75.69753,R,ugm-3
12-01-2018,10:00,21.61779,R,ugm-3,28.91576,R,ugm-3,62.06258,R,ugm-3
12-01-2018,11:00,14.92737,R,ugm-3,26.89757,R,ugm-3,49.78589,R,ugm-3
12-01-2018,12:00,15.86874,R,ugm-3,33.76052,R,ugm-3,58.09224,R,ugm-3
12-01-2018,13:00,15.56615,R,ugm-3,34.53792,R,ugm-3,58.40569,R,ugm-3
12-01-2018,14:00,9.44728,R,ugm-3,27.56856,R,ugm-3,42.05419,R,ugm-3
12-01-2018,15:00,24.97981,R,ugm-3,37.23897,R,ugm-3,75.54081,R,ugm-3
12-01-2018,16:00,21.58417,R,ugm-3,39.31107,R,ugm-3,72.40634,R,ugm-3
12-01-2018,17:00,21.07987,R,ugm-3,39.87536,R,ugm-3,72.19737,R,ugm-3
12-01-2018,18:00,21.24797,R,ugm-3,40.50571,R,ugm-3,73.08547,R,ugm-3
12-01-2018,19:00,9.17832,R,ugm-3,35.81715,R,ugm-3,49.89037,R,ugm-3
12-01-2018,20:00,9.24556,R,ugm-3,37.43801,R,ugm-3,51.61433,R,ugm-3
12-01-2018,21:00,5.95078,R,ugm-3,35.85530,R,ugm-3,44.97970,R,ugm-3
12-01-2018,22:00,2.72324,R,ugm-3,30.82605,R,ugm-3,35.00162,R,ugm-3
12-01-2018,23:00,2.52152,R,ugm-3,31.34432,R,ugm-3,35.21059,R,ugm-3
12-01-2018,24:00,1.61377,R,ugm-3,28.97481,R,ugm-3,31.44922,R,ugm-3
13-01-2018,01:00,1.61690,R,ugm-3,27.57133,R,ugm-3,30.05054,R,ugm-3
13-01-2018,02:00,0.85337,R,ugm-3,30.97320,R,ugm-3,32.28167,R,ugm-3
13-01-2018,03:00,0.74108,R,ugm-3,26.57852,R,ugm-3,27.71483,R,ugm-3
13-01-2018,04:00,0.43791,R,ugm-3,17.31704,R,ugm-3,17.98849,R,ugm-3
13-01-2018,05:00,0.20211,R,ugm-3,12.50167,R,ugm-3,12.81157,R,ugm-3
13-01-2018,06:00,0.23580,R,ugm-3,11.71793,R,ugm-3,12.07948,R,ugm-3
13-01-2018,07:00,0.74108,R,ugm-3,14.81279,R,ugm-3,15.94910,R,ugm-3
13-01-2018,08:00,0.60634,R,ugm-3,16.64045,R,ugm-3,17.57016,R,ugm-3
13-01-2018,09:00,0.97688,R,ugm-3,18.32086,R,ugm-3,19.81872,R,ugm-3
13-01-2018,10:00,2.59378,R,ugm-3,20.86169,R,ugm-3,24.83876,R,ugm-3
13-01-2018,11:00,8.05082,R,ugm-3,25.82883,R,ugm-3,38.17325,R,ugm-3
13-01-2018,12:00,4.85070,R,ugm-3,23.62388,R,ugm-3,31.06152,R,ugm-3
13-01-2018,13:00,11.99202,R,ugm-3,31.49918,R,ugm-3,49.88669,R,ugm-3
13-01-2018,14:00,10.74566,R,ugm-3,31.21397,R,ugm-3,47.69042,R,ugm-3
13-01-2018,15:00,11.41937,R,ugm-3,31.48827,R,ugm-3,48.99772,R,ugm-3
13-01-2018,16:00,8.75822,R,ugm-3,34.10447,R,ugm-3,47.53354,R,ugm-3
13-01-2018,17:00,7.27606,R,ugm-3,38.93939,R,ugm-3,50.09586,R,ugm-3
13-01-2018,18:00,4.10962,R,ugm-3,33.38839,R,ugm-3,39.68972,R,ugm-3
13-01-2018,19:00,2.25692,R,ugm-3,26.76428,R,ugm-3,30.22485,R,ugm-3
13-01-2018,20:00,1.78533,R,ugm-3,23.56547,R,ugm-3,26.30294,R,ugm-3
13-01-2018,21:00,1.44848,R,ugm-3,21.20591,R,ugm-3,23.42687,R,ugm-3
13-01-2018,22:00,1.38110,R,ugm-3,22.25047,R,ugm-3,24.36813,R,ugm-3
13-01-2018,23:00,0.77477,R,ugm-3,16.53907,R,ugm-3,17.72703,R,ugm-3
13-01-2018,24:00,0.60634,R,ugm-3,16.11753,R,ugm-3,17.04723,R,ugm-3
14-01-2018,01:00,0.31501,R,ugm-3,14.66158,R,ugm-3,15.14458,R,ugm-3
14-01-2018,02:00,0.31501,R,ugm-3,21.08232,R,ugm-3,21.56533,R,ugm-3
14-01-2018,03:00,0.10125,R,ugm-3,16.59452,R,ugm-3,16.74977,R,ugm-3
14-01-2018,04:00,0.10125,R,ugm-3,12.77348,R,ugm-3,12.92873,R,ugm-3
14-01-2018,05:00,0.33751,R,ugm-3,10.68390,R,ugm-3,11.20141,R,ugm-3
14-01-2018,06:00,0.20250,R,ugm-3,10.31513,R,ugm-3,10.62563,R,ugm-3
14-01-2018,07:00,0.16875,R,ugm-3,9.26768,R,ugm-3,9.52643,R,ugm-3
14-01-2018,08:00,1.45128,R,ugm-3,12.58781,R,ugm-3,14.81308,R,ugm-3
14-01-2018,09:00,2.73381,R,ugm-3,15.48920,R,ugm-3,19.68098,R,ugm-3
14-01-2018,10:00,4.25259,R,ugm-3,19.12754,R,ugm-3,25.64808,R,ugm-3
14-01-2018,11:00,6.00762,R,ugm-3,22.66535,R,ugm-3,31.87690,R,ugm-3
14-01-2018,12:00,13.06152,R,ugm-3,27.81415,R,ugm-3,47.84153,R,ugm-3
14-01-2018,13:00,10.49646,R,ugm-3,26.82693,R,ugm-3,42.92128,R,ugm-3
14-01-2018,14:00,10.49646,R,ugm-3,23.89572,R,ugm-3,39.99007,R,ugm-3
14-01-2018,15:00,10.69897,R,ugm-3,25.15551,R,ugm-3,41.56036,R,ugm-3
14-01-2018,16:00,10.80022,R,ugm-3,26.15180,R,ugm-3,42.71191,R,ugm-3
14-01-2018,17:00,14.54655,R,ugm-3,31.50424,R,ugm-3,53.80863,R,ugm-3
14-01-2018,18:00,11.34023,R,ugm-3,28.46438,R,ugm-3,45.85249,R,ugm-3
14-01-2018,19:00,9.51769,R,ugm-3,26.49568,R,ugm-3,41.08928,R,ugm-3
14-01-2018,20:00,7.22265,R,ugm-3,23.15777,R,ugm-3,34.23234,R,ugm-3
14-01-2018,21:00,6.31138,R,ugm-3,22.77537,R,ugm-3,32.45268,R,ugm-3
14-01-2018,22:00,2.63255,R,ugm-3,18.15692,R,ugm-3,22.19344,R,ugm-3
14-01-2018,23:00,2.32880,R,ugm-3,15.90083,R,ugm-3,19.47161,R,ugm-3
14-01-2018,24:00,1.01252,R,ugm-3,14.72617,R,ugm-3,16.27868,R,ugm-3
15-01-2018,01:00,1.21737,R,ugm-3,9.52033,R,ugm-3,11.38695,R,ugm-3
15-01-2018,02:00,0.94685,R,ugm-3,7.49009,R,ugm-3,8.94190,R,ugm-3
15-01-2018,03:00,0.84540,R,ugm-3,5.72453,R,ugm-3,7.02079,R,ugm-3
15-01-2018,04:00,1.42027,R,ugm-3,5.31462,R,ugm-3,7.49233,R,ugm-3
15-01-2018,05:00,4.09173,R,ugm-3,10.02062,R,ugm-3,16.29451,R,ugm-3
15-01-2018,06:00,8.72451,R,ugm-3,20.57387,R,ugm-3,33.95126,R,ugm-3
15-01-2018,07:00,18.02389,R,ugm-3,35.34126,R,ugm-3,62.97750,R,ugm-3
15-01-2018,08:00,17.99007,R,ugm-3,36.28381,R,ugm-3,63.86820,R,ugm-3
15-01-2018,09:00,14.16887,R,ugm-3,35.96041,R,ugm-3,57.68571,R,ugm-3
15-01-2018,10:00,19.34271,R,ugm-3,42.48803,R,ugm-3,72.14644,R,ugm-3
15-01-2018,11:00,18.97073,R,ugm-3,41.27699,R,ugm-3,70.36504,R,ugm-3
15-01-2018,12:00,27.76287,R,ugm-3,47.39123,R,ugm-3,89.96037,R,ugm-3
15-01-2018,13:00,24.11075,R,ugm-3,46.33704,R,ugm-3,83.30635,R,ugm-3
15-01-2018,14:00,27.25564,R,ugm-3,41.82932,R,ugm-3,83.62071,R,ugm-3
15-01-2018,15:00,17.04323,R,ugm-3,34.17283,R,ugm-3,60.30541,R,ugm-3
15-01-2018,16:00,17.51665,R,ugm-3,37.27168,R,ugm-3,64.13017,R,ugm-3